SCP
0 0 0 0 0 0 0 0 0 0 0 0 0 0 0 0 0 0 0 0 0 0
0 0 0 0 0 0 0 0 0 0 0 0 0 0 0 0 0 0 0 0 0 0
0 0 0 0 0 0 0 0 0 0 0 0 0 0 0 0 0 0 0 0 0 0
0 0 0 0 0 0 0 0 0 0 0 0 0 0 0 0 0 0 0 0 0 0
0 0 0 0 0 0 0 0 0 0 0 0 0 0 0 0 0 0 0 0 0 0
0 0 0 0 0 0 0 0 0 0 0 0 0 0 0 0 0 0 0 0 0 0
0 0 0 0 0 -0 0 0 0 0 0 0 0 0 0 0 0 0 0 0 0 0
0 0 0 -0 -0 0 0 0 0 0 0 0 0 0 0 0 0 0 0 0 0 0
0 0 -0 -0 -0 0 0 0 0 0 0 0 0 0 0 0 0 0 0 0 0 0
0 -0 -0 -0 0 0 0 0 0 0 0 0 0 0 0 0 0 0 0 0 0 0
-0 -0 -0 0 0 0 0 0 0 0 0 0 0 0 0 0 0 0 0 0 0 0
-0 -0 -0 0 0 0 0 0 0 0 0 0 0 0 0 0 0 0 0 0 0 0
-0 -0 -0 -0 0 0 0 0 0 0 0 0 0 0 0 0 0 0 0 0 0 0
-0 -0 -0 0 0 0 0 0 0 -0 0 0 0 0 0 0 0 0 0 0 0 0
Wind_Speed_500mb
65 69 81 96 93 85 95 97 92 92 88 98 116 137 118 147 150 136 126 142 140 130
71 86 85 89 82 91 102 107 106 93 96 101 107 130 140 126 151 144 135 133 126 129
100 79 84 82 91 97 112 109 109 101 100 108 114 131 136 152 151 139 139 130 132 124
90 71 80 85 97 108 110 104 104 105 120 133 132 141 139 138 130 138 137 137 132 114
82 78 83 92 99 110 107 97 102 115 119 111 126 129 134 126 127 138 126 137 127 123
82 82 79 90 102 107 93 91 94 87 88 84 104 113 120 121 125 130 130 133 126 121
82 75 83 94 102 101 78 84 64 64 69 72 81 101 112 99 109 117 114 117 123 117
81 82 87 97 96 76 74 62 57 59 63 58 59 83 104 102 103 109 106 108 111 111
74 93 88 90 86 60 56 49 51 52 51 63 69 85 89 98 102 101 102 108 100 91
72 83 84 81 66 57 45 45 43 45 47 52 62 71 80 89 89 95 100 106 95 89
81 81 78 67 59 48 37 37 34 39 41 47 53 58 66 75 87 89 82 80 86 86
77 69 61 57 42 34 27 28 27 32 35 36 43 51 65 79 76 78 78 80 80 82
61 55 46 46 27 23 18 19 23 26 27 29 35 48 56 63 67 70 72 71 70 69
45 40 41 28 16 11 7 12 18 23 28 32 37 48 50 58 64 68 67 62 60 56
Wind_Direction_500mb
301 301 298 301 301 298 299 294 288 280 275 260 253 254 236 227 222 214 211 211 214 215
297 303 300 299 301 298 302 294 293 283 270 266 253 248 239 231 219 212 208 212 209 215
307 302 294 292 302 304 304 296 291 282 273 265 257 246 234 227 213 206 205 209 211 214
309 300 294 295 305 308 304 294 285 283 281 272 255 236 229 219 206 203 202 206 211 208
303 301 296 302 306 308 302 288 285 287 279 269 249 226 218 214 203 204 199 205 204 203
306 300 302 305 309 312 296 291 294 283 291 265 218 225 222 208 207 202 200 204 201 198
312 311 304 309 312 309 297 300 296 292 275 229 217 218 220 213 203 195 194 199 200 196
315 310 309 312 314 304 307 305 297 284 258 244 220 222 207 200 195 192 191 194 192 192
306 309 313 319 314 309 308 307 290 272 249 227 221 208 207 207 195 198 194 187 187 191
318 315 319 317 318 310 310 301 278 260 242 218 206 200 200 200 200 194 190 189 189 189
319 317 322 315 317 311 304 294 278 250 235 224 211 204 202 202 194 186 186 188 190 187
319 319 319 315 313 316 306 283 267 247 233 219 202 204 205 194 190 184 180 181 182 181
323 316 319 318 319 325 304 277 245 228 226 217 196 190 199 190 180 172 170 176 177 178
322 321 321 320 322 326 278 221 198 190 185 184 184 187 181 176 172 171 169 169 166 171
Wind_Speed_850mb
65 69 81 96 93 85 95 97 92 92 88 98 116 137 118 147 150 136 126 142 140 130
71 86 85 89 82 91 102 107 106 93 96 101 107 130 140 126 151 144 135 133 126 129
100 79 84 82 91 97 112 109 109 101 100 108 114 131 136 152 151 139 139 130 132 124
90 71 80 85 97 108 110 104 104 105 120 133 132 141 139 138 130 138 137 137 132 114
82 78 83 92 99 110 107 97 102 115 119 111 126 129 134 126 127 138 126 137 127 123
82 82 79 90 102 107 93 91 94 87 88 84 104 113 120 121 125 130 130 133 126 121
82 75 83 94 102 101 78 84 64 64 69 72 81 101 112 99 109 117 114 117 123 117
81 82 87 97 96 76 74 62 57 59 63 58 59 83 104 102 103 109 106 108 111 111
74 93 88 90 86 60 56 49 51 52 51 63 69 85 89 98 102 101 102 108 100 91
72 83 84 81 66 57 45 45 43 45 47 52 62 71 80 89 89 95 100 106 95 89
81 81 78 67 59 48 37 37 34 39 41 47 53 58 66 75 87 89 82 80 86 86
77 69 61 57 42 34 27 28 27 32 35 36 43 51 65 79 76 78 78 80 80 82
61 55 46 46 27 23 18 19 23 26 27 29 35 48 56 63 67 70 72 71 70 69
45 40 41 28 16 11 7 12 18 23 28 32 37 48 50 58 64 68 67 62 60 56
Wind_Direction_850mb
301 301 298 301 301 298 299 294 288 280 275 260 253 254 236 227 222 214 211 211 214 215
297 303 300 299 301 298 302 294 293 283 270 266 253 248 239 231 219 212 208 212 209 215
307 302 294 292 302 304 304 296 291 282 273 265 257 246 234 227 213 206 205 209 211 214
309 300 294 295 305 308 304 294 285 283 281 272 255 236 229 219 206 203 202 206 211 208
303 301 296 302 306 308 302 288 285 287 279 269 249 226 218 214 203 204 199 205 204 203
306 300 302 305 309 312 296 291 294 283 291 265 218 225 222 208 207 202 200 204 201 198
312 311 304 309 312 309 297 300 296 292 275 229 217 218 220 213 203 195 194 199 200 196
315 310 309 312 314 304 307 305 297 284 258 244 220 222 207 200 195 192 191 194 192 192
306 309 313 319 314 309 308 307 290 272 249 227 221 208 207 207 195 198 194 187 187 191
318 315 319 317 318 310 310 301 278 260 242 218 206 200 200 200 200 194 190 189 189 189
319 317 322 315 317 311 304 294 278 250 235 224 211 204 202 202 194 186 186 188 190 187
319 319 319 315 313 316 306 283 267 247 233 219 202 204 205 194 190 184 180 181 182 181
323 316 319 318 319 325 304 277 245 228 226 217 196 190 199 190 180 172 170 176 177 178
322 321 321 320 322 326 278 221 198 190 185 184 184 187 181 176 172 171 169 169 166 171